This is the latest recevied weather packets stored in our database for station/object F4JUT-10. If no packets are shown the sender has not sent any weather packets the latest 10 day(s).
| Time | Temp. | Humidity | Pressure | Rain* | Wind** | Luminosity | Snow |
|---|---|---|---|---|---|---|---|
| 1778020376 | 9.44° C | 92% | 1014.2 hPa | - | - | - | - |
| 1778019476 | 9.44° C | 91% | 1014.4 hPa | - | - | - | - |
| 1778018576 | 9.44° C | 91% | 1014.5 hPa | - | - | - | - |
| 1778017676 | 9.44° C | 91% | 1014.8 hPa | - | - | - | - |
| 1778016775 | 10° C | 90% | 1015 hPa | - | - | - | - |
| 1778015875 | 9.44° C | 89% | 1015.5 hPa | - | - | - | - |
| 1778014975 | 9.44° C | 88% | 1015.7 hPa | - | - | - | - |
| 1778014075 | 10° C | 87% | 1015.3 hPa | - | - | - | - |
| 1778013175 | 10° C | 86% | 1015.2 hPa | - | - | - | - |
| 1778012275 | 10° C | 84% | 1014.8 hPa | - | - | - | - |
| 1778011375 | 10° C | 83% | 1014 hPa | - | - | - | - |
| 1778010475 | 10.56° C | 81% | 1014 hPa | - | - | - | - |
| 1778009574 | 10.56° C | 80% | 1013.6 hPa | - | - | - | - |
| 1778008674 | 11.67° C | 78% | 1013.6 hPa | - | - | - | - |
| 1778007774 | 12.22° C | 75% | 1012.9 hPa | - | - | - | - |
| 1778006874 | 12.22° C | 74% | 1012.7 hPa | - | - | - | - |
| 1778005974 | 12.78° C | 73% | 1012.9 hPa | - | - | - | - |
| 1778005074 | 13.33° C | 73% | 1012.8 hPa | - | - | - | - |
| 1778004174 | 13.89° C | 72% | 1012.8 hPa | - | - | - | - |
| 1778003274 | 13.89° C | 72% | 1012.8 hPa | - | - | - | - |
| 1778002373 | 13.89° C | 72% | 1012.9 hPa | - | - | - | - |
| 1778001473 | 14.44° C | 72% | 1013 hPa | - | - | - | - |
| 1778000573 | 14.44° C | 73% | 1012.9 hPa | - | - | - | - |
| 1777999673 | 14.44° C | 73% | 1012.7 hPa | - | - | - | - |
| 1777998773 | 14.44° C | 74% | 1013.2 hPa | - | - | - | - |
* Rain since midnight (hover to see other rain measurements)
** Current wind speed in m/s (hover to see current wind gust speed)